Time,TemperatureF,DewpointF,PressureIn,WindDirection,WindDirectionDegrees,WindSpeedMPH,WindSpeedGustMPH,Humidity,HourlyPrecipIn,Conditions,Clouds,dailyrainin,SoftwareType,DateUTC
2013-07-24 00:02:00,54.5,53.0,30.01,North,355,0.0,0.0,96,0.00,,,0.00,weatherlink.com 1.10,2013-07-24 07:02:00,
2013-07-24 00:17:00,54.5,54.0,30.01,North,355,0.0,0.0,97,0.00,,,0.00,weatherlink.com 1.10,2013-07-24 07:17:00,
2013-07-24 00:32:00,54.6,54.0,30.00,North,360,0.0,0.0,96,0.00,,,0.00,weatherlink.com 1.10,2013-07-24 07:32:00,
2013-07-24 00:47:00,54.7,54.0,30.00,North,360,0.0,0.0,97,0.00,,,0.00,weatherlink.com 1.10,2013-07-24 07:47:00,
2013-07-24 01:02:00,54.6,54.0,30.00,NNE,22,0.0,0.0,96,0.00,,,0.00,weatherlink.com 1.10,2013-07-24 08:02:00,
2013-07-24 01:17:00,54.4,54.0,29.99,NNE,26,0.0,0.0,97,0.00,,,0.00,weatherlink.com 1.10,2013-07-24 08:17:00,
2013-07-24 01:32:00,54.4,53.0,29.99,North,5,0.0,2.0,96,0.00,,,0.00,weatherlink.com 1.10,2013-07-24 08:32:00,
2013-07-24 01:47:00,54.3,54.0,29.99,North,11,0.0,0.0,97,0.00,,,0.00,weatherlink.com 1.10,2013-07-24 08:47:00,
2013-07-24 02:02:00,54.5,54.0,29.98,North,11,0.0,0.0,97,0.00,,,0.00,weatherlink.com 1.10,2013-07-24 09:02:00,
2013-07-24 02:17:00,54.5,54.0,29.98,NNE,14,0.0,1.0,97,0.00,,,0.00,weatherlink.com 1.10,2013-07-24 09:17:00,
2013-07-24 02:32:00,54.3,54.0,29.98,NNE,16,0.0,0.0,97,0.00,,,0.00,weatherlink.com 1.10,2013-07-24 09:32:00,
2013-07-24 02:47:00,54.5,54.0,29.97,NNE,17,0.0,0.0,97,0.00,,,0.00,weatherlink.com 1.10,2013-07-24 09:47:00,
2013-07-24 03:02:00,54.6,54.0,29.97,NNE,17,0.0,0.0,97,0.00,,,0.00,weatherlink.com 1.10,2013-07-24 10:02:00,
2013-07-24 03:17:00,54.5,54.0,29.97,NNE,17,0.0,0.0,97,0.00,,,0.00,weatherlink.com 1.10,2013-07-24 10:17:00,
2013-07-24 03:32:00,54.4,54.0,29.97,NNE,17,0.0,0.0,97,0.00,,,0.00,weatherlink.com 1.10,2013-07-24 10:32:00,
2013-07-24 03:47:00,54.1,53.0,29.96,NNE,17,0.0,0.0,97,0.00,,,0.00,weatherlink.com 1.10,2013-07-24 10:47:00,
2013-07-24 04:02:00,54.4,54.0,29.96,NNE,17,0.0,0.0,97,0.00,,,0.00,weatherlink.com 1.10,2013-07-24 11:02:00,
2013-07-24 04:17:00,54.3,54.0,29.96,NNE,17,0.0,0.0,97,0.00,,,0.00,weatherlink.com 1.10,2013-07-24 11:17:00,
2013-07-24 04:32:00,53.5,52.0,29.96,NNE,17,0.0,0.0,96,0.00,,,0.00,weatherlink.com 1.10,2013-07-24 11:32:00,
2013-07-24 04:47:00,53.2,52.0,29.96,NNE,17,0.0,0.0,97,0.00,,,0.00,weatherlink.com 1.10,2013-07-24 11:47:00,
2013-07-24 05:03:00,52.9,52.0,29.97,NNE,17,0.0,0.0,97,0.00,,,0.00,weatherlink.com 1.10,2013-07-24 12:03:00,
2013-07-24 05:18:00,52.6,52.0,29.97,NNE,17,0.0,0.0,97,0.00,,,0.00,weatherlink.com 1.10,2013-07-24 12:18:00,
2013-07-24 05:33:00,52.2,51.0,29.98,NNE,17,0.0,0.0,97,0.00,,,0.00,weatherlink.com 1.10,2013-07-24 12:33:00,
2013-07-24 05:48:00,52.0,51.0,29.98,NNE,17,0.0,0.0,97,0.00,,,0.00,weatherlink.com 1.10,2013-07-24 12:48:00,
2013-07-24 06:03:00,52.7,52.0,29.98,NNE,17,0.0,0.0,97,0.00,,,0.00,weatherlink.com 1.10,2013-07-24 13:03:00,
2013-07-24 06:18:00,52.7,52.0,29.98,NNE,17,0.0,0.0,97,0.00,,,0.00,weatherlink.com 1.10,2013-07-24 13:18:00,
2013-07-24 06:33:00,52.4,52.0,29.98,NNE,17,0.0,0.0,97,0.00,,,0.00,weatherlink.com 1.10,2013-07-24 13:33:00,
2013-07-24 06:48:00,52.1,51.0,29.99,NNE,17,0.0,0.0,97,0.00,,,0.00,weatherlink.com 1.10,2013-07-24 13:48:00,
2013-07-24 07:03:00,52.0,51.0,29.99,NNE,17,0.0,0.0,97,0.00,,,0.00,weatherlink.com 1.10,2013-07-24 14:03:00,
2013-07-24 07:18:00,52.0,51.0,29.99,NNE,17,0.0,0.0,97,0.00,,,0.00,weatherlink.com 1.10,2013-07-24 14:18:00,
2013-07-24 07:33:00,52.2,52.0,30.00,SW,216,0.0,0.0,98,0.00,,,0.00,weatherlink.com 1.10,2013-07-24 14:33:00,
2013-07-24 07:48:00,52.4,52.0,30.00,SW,223,0.0,0.0,98,0.00,,,0.00,weatherlink.com 1.10,2013-07-24 14:48:00,
2013-07-24 08:03:00,52.4,52.0,30.01,SW,228,0.0,5.0,98,0.00,,,0.00,weatherlink.com 1.10,2013-07-24 15:03:00,
2013-07-24 08:18:00,52.8,52.0,30.01,WSW,240,2.0,5.0,98,0.00,,,0.00,weatherlink.com 1.10,2013-07-24 15:18:00,
2013-07-24 08:33:00,53.0,53.0,30.01,SSW,200,3.0,5.0,98,0.00,,,0.00,weatherlink.com 1.10,2013-07-24 15:33:00,
2013-07-24 08:48:00,52.9,52.0,30.01,SW,221,0.0,6.0,98,0.00,,,0.00,weatherlink.com 1.10,2013-07-24 15:48:00,
2013-07-24 09:03:00,52.3,52.0,30.02,SSW,198,2.0,5.0,98,0.01,,,0.01,weatherlink.com 1.10,2013-07-24 16:03:00,
2013-07-24 09:18:00,52.4,52.0,30.02,SSW,211,5.0,5.0,98,0.01,,,0.01,weatherlink.com 1.10,2013-07-24 16:18:00,
2013-07-24 09:33:00,52.3,52.0,30.02,SSW,203,5.0,5.0,98,0.01,,,0.01,weatherlink.com 1.10,2013-07-24 16:33:00,
2013-07-24 09:48:00,52.4,52.0,30.02,SSW,205,3.0,5.0,98,0.01,,,0.01,weatherlink.com 1.10,2013-07-24 16:48:00,
2013-07-24 10:03:00,52.7,52.0,30.02,SSW,206,0.0,4.0,98,0.00,,,0.01,weatherlink.com 1.10,2013-07-24 17:03:00,
2013-07-24 10:18:00,52.7,52.0,30.03,SSW,208,1.0,4.0,98,0.00,,,0.01,weatherlink.com 1.10,2013-07-24 17:18:00,
2013-07-24 10:33:00,53.1,53.0,30.03,SSW,204,2.0,5.0,98,0.00,,,0.01,weatherlink.com 1.10,2013-07-24 17:33:00,
2013-07-24 10:48:00,53.5,53.0,30.03,SW,228,4.0,7.0,98,0.00,,,0.01,weatherlink.com 1.10,2013-07-24 17:48:00,
2013-07-24 11:03:00,53.2,53.0,30.03,SSW,198,2.0,6.0,98,0.00,,,0.01,weatherlink.com 1.10,2013-07-24 18:03:00,
2013-07-24 11:18:00,53.4,53.0,30.03,SSW,199,4.0,7.0,98,0.00,,,0.01,weatherlink.com 1.10,2013-07-24 18:18:00,
2013-07-24 11:33:00,53.9,53.0,30.03,South,189,5.0,7.0,97,0.00,,,0.01,weatherlink.com 1.10,2013-07-24 18:33:00,
2013-07-24 11:48:00,55.5,55.0,30.03,SSW,207,5.0,6.0,97,0.00,,,0.01,weatherlink.com 1.10,2013-07-24 18:48:00,
2013-07-24 12:03:00,56.0,55.0,30.02,SSW,205,5.0,5.0,96,0.00,,,0.01,weatherlink.com 1.10,2013-07-24 19:03:00,
2013-07-24 12:18:00,56.9,55.0,30.02,WSW,257,0.0,5.0,94,0.00,,,0.01,weatherlink.com 1.10,2013-07-24 19:18:00,
2013-07-24 12:33:00,56.7,55.0,30.02,SSW,201,2.0,6.0,93,0.00,,,0.01,weatherlink.com 1.10,2013-07-24 19:33:00,
2013-07-24 12:48:00,58.0,55.0,30.02,SW,219,3.0,5.0,90,0.00,,,0.01,weatherlink.com 1.10,2013-07-24 19:48:00,
2013-07-24 13:03:00,57.2,54.0,30.01,SW,226,5.0,6.0,90,0.00,,,0.01,weatherlink.com 1.10,2013-07-24 20:03:00,
2013-07-24 13:18:00,56.7,54.0,30.02,SW,223,4.0,7.0,91,0.00,,,0.01,weatherlink.com 1.10,2013-07-24 20:18:00,
2013-07-24 13:33:00,57.7,55.0,30.01,SW,229,3.0,7.0,90,0.00,,,0.01,weatherlink.com 1.10,2013-07-24 20:33:00,
2013-07-24 13:48:00,57.7,55.0,30.02,SW,232,4.0,7.0,91,0.00,,,0.01,weatherlink.com 1.10,2013-07-24 20:48:00,
2013-07-24 14:03:00,55.9,53.0,30.01,SW,220,3.0,7.0,90,0.00,,,0.01,weatherlink.com 1.10,2013-07-24 21:03:00,
2013-07-24 14:18:00,56.0,54.0,30.01,SSW,198,5.0,7.0,92,0.00,,,0.01,weatherlink.com 1.10,2013-07-24 21:18:00,
2013-07-24 14:33:00,56.5,54.0,30.01,SSW,209,3.0,6.0,92,0.00,,,0.01,weatherlink.com 1.10,2013-07-24 21:33:00,
2013-07-24 14:48:00,56.6,55.0,30.00,SW,216,4.0,7.0,93,0.00,,,0.01,weatherlink.com 1.10,2013-07-24 21:48:00,
2013-07-24 15:03:00,56.7,54.0,30.00,SSW,198,3.0,7.0,91,0.00,,,0.01,weatherlink.com 1.10,2013-07-24 22:03:00,
2013-07-24 15:18:00,57.8,55.0,30.00,SSW,211,2.0,7.0,91,0.00,,,0.01,weatherlink.com 1.10,2013-07-24 22:18:00,
2013-07-24 15:33:00,57.1,55.0,30.00,SSW,209,5.0,7.0,91,0.00,,,0.01,weatherlink.com 1.10,2013-07-24 22:33:00,
2013-07-24 15:48:00,56.0,54.0,30.00,SW,216,5.0,6.0,93,0.00,,,0.01,weatherlink.com 1.10,2013-07-24 22:48:00,
2013-07-24 16:03:00,56.3,54.0,30.00,SSW,198,5.0,7.0,93,0.00,,,0.01,weatherlink.com 1.10,2013-07-24 23:03:00,
2013-07-24 16:18:00,56.8,55.0,29.99,SSW,196,3.0,7.0,93,0.00,,,0.01,weatherlink.com 1.10,2013-07-24 23:18:00,
2013-07-24 16:33:00,57.0,55.0,29.98,SW,225,4.0,7.0,92,0.00,,,0.01,weatherlink.com 1.10,2013-07-24 23:33:00,
2013-07-24 16:48:00,57.4,55.0,29.98,SW,216,2.0,6.0,90,0.00,,,0.01,weatherlink.com 1.10,2013-07-24 23:48:00,
2013-07-24 17:03:00,57.6,55.0,29.98,SSW,198,3.0,6.0,92,0.00,,,0.01,weatherlink.com 1.10,2013-07-25 00:03:00,
2013-07-24 17:18:00,56.8,55.0,29.97,SW,217,4.0,6.0,93,0.00,,,0.01,weatherlink.com 1.10,2013-07-25 00:18:00,
2013-07-24 17:33:00,57.0,55.0,29.97,SW,221,3.0,8.0,93,0.00,,,0.01,weatherlink.com 1.10,2013-07-25 00:33:00,
2013-07-24 17:48:00,58.2,56.0,29.97,SSW,194,5.0,7.0,91,0.00,,,0.01,weatherlink.com 1.10,2013-07-25 00:48:00,
2013-07-24 18:03:00,57.8,55.0,29.97,SW,215,4.0,7.0,89,0.00,,,0.01,weatherlink.com 1.10,2013-07-25 01:03:00,
2013-07-24 18:18:00,56.7,54.0,29.96,SW,228,2.0,6.0,91,0.00,,,0.01,weatherlink.com 1.10,2013-07-25 01:18:00,
2013-07-24 18:33:00,56.7,54.0,29.97,SSW,198,4.0,6.0,91,0.00,,,0.01,weatherlink.com 1.10,2013-07-25 01:33:00,
2013-07-24 18:48:00,56.3,54.0,29.97,SSW,196,5.0,6.0,92,0.00,,,0.01,weatherlink.com 1.10,2013-07-25 01:48:00,
2013-07-24 19:03:00,55.4,54.0,29.96,SSW,198,4.0,6.0,93,0.00,,,0.01,weatherlink.com 1.10,2013-07-25 02:03:00,
2013-07-24 19:18:00,54.8,53.0,29.96,SW,228,3.0,5.0,94,0.00,,,0.01,weatherlink.com 1.10,2013-07-25 02:18:00,
2013-07-24 19:33:00,54.6,53.0,29.96,SW,215,1.0,4.0,95,0.00,,,0.01,weatherlink.com 1.10,2013-07-25 02:33:00,
2013-07-24 19:48:00,54.4,53.0,29.96,SSW,208,2.0,4.0,95,0.00,,,0.01,weatherlink.com 1.10,2013-07-25 02:48:00,
2013-07-24 20:03:00,54.2,53.0,29.96,SSE,168,0.0,1.0,95,0.00,,,0.01,weatherlink.com 1.10,2013-07-25 03:03:00,
2013-07-24 20:18:00,54.1,53.0,29.96,SSE,168,0.0,0.0,96,0.00,,,0.01,weatherlink.com 1.10,2013-07-25 03:18:00,
2013-07-24 20:33:00,54.0,53.0,29.96,SSE,168,0.0,0.0,96,0.00,,,0.01,weatherlink.com 1.10,2013-07-25 03:33:00,
2013-07-24 20:49:00,53.9,53.0,29.96,SSE,168,0.0,0.0,96,0.00,,,0.01,weatherlink.com 1.10,2013-07-25 03:49:00,
2013-07-24 21:04:00,53.7,53.0,29.95,SSE,168,0.0,0.0,96,0.00,,,0.01,weatherlink.com 1.10,2013-07-25 04:04:00,
2013-07-24 21:19:00,53.6,53.0,29.95,SSE,168,0.0,0.0,96,0.00,,,0.01,weatherlink.com 1.10,2013-07-25 04:19:00,
2013-07-24 21:34:00,53.5,52.0,29.96,SSE,168,0.0,0.0,96,0.00,,,0.01,weatherlink.com 1.10,2013-07-25 04:34:00,
2013-07-24 21:49:00,53.5,52.0,29.96,SSE,168,0.0,0.0,96,0.00,,,0.01,weatherlink.com 1.10,2013-07-25 04:49:00,
2013-07-24 22:04:00,53.6,53.0,29.96,SSE,168,0.0,0.0,96,0.00,,,0.01,weatherlink.com 1.10,2013-07-25 05:04:00,
2013-07-24 22:19:00,53.5,52.0,29.96,SSE,168,0.0,0.0,96,0.00,,,0.01,weatherlink.com 1.10,2013-07-25 05:19:00,
2013-07-24 22:34:00,53.5,52.0,29.96,SSE,168,0.0,0.0,96,0.00,,,0.01,weatherlink.com 1.10,2013-07-25 05:34:00,
2013-07-24 22:49:00,53.5,52.0,29.96,SE,132,0.0,0.0,96,0.00,,,0.01,weatherlink.com 1.10,2013-07-25 05:49:00,
2013-07-24 23:04:00,53.6,53.0,29.96,ENE,78,0.0,0.0,96,0.00,,,0.01,weatherlink.com 1.10,2013-07-25 06:04:00,
2013-07-24 23:19:00,53.5,52.0,29.96,ENE,78,0.0,0.0,96,0.00,,,0.01,weatherlink.com 1.10,2013-07-25 06:19:00,
2013-07-24 23:34:00,53.3,52.0,29.95,ENE,78,0.0,0.0,96,0.00,,,0.01,weatherlink.com 1.10,2013-07-25 06:34:00,
2013-07-24 23:49:00,53.9,53.0,29.95,ENE,71,0.0,0.0,97,0.00,,,0.01,weatherlink.com 1.10,2013-07-25 06:49:00,